Regional Weather Roundup
Issued by NWS

Home | Current Version | Previous Version | Graphics & Text | Print | Product List | Glossary On
Versions: 1 2 3 4 5 6 7 8 9 10 11 12 13 14 15 16 17 18 19 20 21 22 23 24 25 26 27
000
ASUS45 KCYS 301510
RWRWY

WYOMING REGIONAL WEATHER ROUNDUP
NATIONAL WEATHER SERVICE CHEYENNE WY
900 AM MDT SAT APR 30 2016

NOTE:  "FAIR" INDICATES FEW OR NO CLOUDS BELOW 12,000 FEET
WITH NO SIGNIFICANT WEATHER AND/OR OBSTRUCTIONS TO VISIBILITY.

WYZ001-301600-
YELLOWSTONE NATIONAL PARK

CITY           SKY/WX    TMP DP  RH WIND       PRES   REMARKS
LK YELLOWSTONE   N/A     35  25  66 VRB3      30.07R
W YELLOWSTONE  NOT AVBL

$$
WYZ002>013-054>058-071-098>099-301600-
NORTHERN WYOMING

CITY           SKY/WX    TMP DP  RH WIND       PRES   REMARKS
JACKSON        SUNNY     39  34  81 N17       30.01R WCI  30
CODY           CLOUDY    39  34  81 NW9       30.08S WCI  33
GREYBULL       PTSUNNY   47  35  63 NW16      30.04R
WORLAND        CLOUDY    44  36  73 N5        30.06R
SHERIDAN       CLOUDY    41  36  82 CALM      30.15R
BUFFALO          N/A    N/A N/A N/A MISG      30.13R
GILLETTE       CLOUDY    39  36  89 NE14      30.10R WCI  31
HULETT         CLOUDY    39  36  87 NE7       30.11R WCI  34
NEWCASTLE      CLOUDY    39  30  70 NE3       30.07R

$$
WYZ014>020-022>026-101>103-301600-
CENTRAL WYOMING

CITY           SKY/WX    TMP DP  RH WIND       PRES   REMARKS
BIG PINEY      CLOUDY    35  32  88 W7        30.02R WCI  29
PINEDALE       CLOUDY    32  32 100 CALM      30.02R
DUBOIS         LGT SNOW  32  30  93 SE6       30.04R WCI  26
LANDER         LGT RAIN  36  34  92 NW10      30.05R WCI  28
RIVERTON       LGT RAIN  38  35  89 N8        30.06R WCI  32
CASPER         LGT SNOW  33  31  92 N10       30.05R FOG     WCI  25
DOUGLAS        LGT SNOW  34  32  92 NE9       30.06R FOG     WCI  27

$$
WYZ021-027>030-104>119-301600-
SOUTHERN WYOMING

CITY           SKY/WX    TMP DP  RH WIND       PRES   REMARKS
EVANSTON       CLOUDY    33  26  75 E16G22    30.00R WCI  23
KEMMERER         N/A     32  30  93 E14       30.02R WCI  22
FORT BRIDGER   FLURRIES  34  34 100 E12       30.04R WCI  25
ROCK SPRINGS   CLOUDY    33  28  81 NE14      30.00R WCI  23
DIXON          CLOUDY    37  26  63 N16G22    29.96R WCI  28
RAWLINS        FOG       31  27  85 NE12      29.99R VSB 3/4 WCI  22
SARATOGA       CLOUDY    32  30  93 NE8       29.98R WCI  25
LARAMIE        LGT SNOW  26  24  92 N9        29.94R FOG     WCI  17
CHEYENNE       LGT SNOW  30  27  88 N15G25    29.92S VSB 3/4 WCI  19
TORRINGTON     LGT SNOW  34  32  92 N15       29.97S FOG     WCI  24
PINE BLUFFS    LGT SNOW  32  32 100 N17       29.92R WCI  21

$$




USA.gov is the U.S. government's official web portal to all federal, state and local government web resources and services.